^^
Saratoga-Weather Station Historical Data
Daily Summary for August 12, 2020 Units:  English    Metric   Both
Daily Weekly Monthly Yearly Custom
  High: Low: Average:
Temperature: 75.7 °F 48.4 °F 60.3 °F
Dew Point: 50.9 °F 38.8 °F 45.3 °F
Humidity: 87% 28% 62%
Wind Speed: 10.1mph 0mph 1mph
Wind Gust: 11mph - -
Wind- - SSW
Pressure: 30.1 in 29.9 in -
Precipitation: 0 in    
Historical Graphs
 
 
Tabular Data for August 12, 2020
Time Temperature Dew Point Pressure Wind Wind Speed Wind Gust Humidity Rainfall Rate (Hourly) solar
00:02 55.2 °F 46 °F 30.1 in SE 0.9 mph 2 mph 71% 0 in 0 W/m2
00:07 55 °F 46.2 °F 30.1 in Calm   2 mph 72% 0 in 0 W/m2
00:12 55 °F 46.2 °F 30.1 in West 0.9 mph 1 mph 72% 0 in 0 W/m2
00:17 55 °F 46.2 °F 30.1 in Calm   1 mph 72% 0 in 0 W/m2
00:22 55 °F 45.9 °F 30.1 in SSE 2 mph 2 mph 71% 0 in 0 W/m2
00:27 55.2 °F 46.4 °F 30.1 in East 0.9 mph 2 mph 72% 0 in 0 W/m2
00:32 55.4 °F 46.2 °F 30.1 in Calm     71% 0 in 0 W/m2
00:37 55.4 °F 46.2 °F 30.1 in Calm   2 mph 71% 0 in 0 W/m2
00:42 55.2 °F 46 °F 30.1 in Calm   1 mph 71% 0 in 0 W/m2
00:47 55.2 °F 46.4 °F 30.1 in Calm   1 mph 72% 0 in 0 W/m2
00:52 54.9 °F 46 °F 30.1 in West 2 mph 4 mph 72% 0 in 0 W/m2
00:57 54.9 °F 46 °F 30.1 in West 0.9 mph 2 mph 72% 0 in 0 W/m2
01:02 54.9 °F 46.4 °F 30.1 in SSW 0.9 mph 1 mph 73% 0 in 0 W/m2
01:07 54.7 °F 46.6 °F 30.1 in SSW 0.9 mph 1 mph 74% 0 in 0 W/m2
01:12 54.5 °F 46.4 °F 30.1 in Calm   2 mph 74% 0 in 0 W/m2
01:17 54.3 °F 46.6 °F 30.1 in Calm   1 mph 75% 0 in 0 W/m2
01:22 54.3 °F 46.6 °F 30.1 in SSW 0.9 mph 1 mph 75% 0 in 0 W/m2
01:28 54.1 °F 46.4 °F 30.1 in Calm     75% 0 in 0 W/m2
01:33 54 °F 46.2 °F 30.1 in Calm     75% 0 in 0 W/m2
01:38 53.8 °F 46 °F 30.1 in WNW 0.9 mph 2 mph 75% 0 in 0 W/m2
01:43 53.6 °F 46.2 °F 30.1 in WNW 0.9 mph 1 mph 76% 0 in 0 W/m2
01:48 53.4 °F 46 °F 30.1 in Calm   3 mph 76% 0 in 0 W/m2
01:53 53.2 °F 45.9 °F 30.1 in Calm     76% 0 in 0 W/m2
01:58 53.1 °F 45.7 °F 30.1 in Calm   2 mph 76% 0 in 0 W/m2
02:03 53.1 °F 46 °F 30.1 in Calm     77% 0 in 0 W/m2
02:08 52.9 °F 45.5 °F 30.1 in Calm     76% 0 in 0 W/m2
02:13 52.7 °F 45.7 °F 30.1 in Calm     77% 0 in 0 W/m2
02:18 52.5 °F 45.5 °F 30.1 in Calm   1 mph 77% 0 in 0 W/m2
02:23 52.3 °F 45.7 °F 30.1 in Calm   1 mph 78% 0 in 0 W/m2
02:28 52.2 °F 45.5 °F 30.1 in Calm   1 mph 78% 0 in 0 W/m2
02:33 52.2 °F 45.5 °F 30.1 in Calm   2 mph 78% 0 in 0 W/m2
02:38 52 °F 45.7 °F 30.1 in Calm   1 mph 79% 0 in 0 W/m2
02:43 51.8 °F 45.5 °F 30.1 in WNW 0.9 mph 2 mph 79% 0 in 0 W/m2
02:48 51.6 °F 45.3 °F 30.1 in Calm     79% 0 in 0 W/m2
02:53 51.4 °F 45.1 °F 30.1 in Calm     79% 0 in 0 W/m2
02:58 51.3 °F 45.3 °F 30.1 in Calm     80% 0 in 0 W/m2
03:03 51.1 °F 45.1 °F 30.1 in Calm     80% 0 in 0 W/m2
03:08 50.9 °F 45 °F 30.1 in Calm     80% 0 in 0 W/m2
03:13 50.7 °F 45.1 °F 30.1 in Calm     81% 0 in 0 W/m2
03:18 50.5 °F 45 °F 30.1 in Calm     81% 0 in 0 W/m2
03:23 50.4 °F 44.8 °F 30.1 in Calm     81% 0 in 0 W/m2
03:28 50.2 °F 45 °F 30.1 in Calm     82% 0 in 0 W/m2
03:33 50 °F 44.8 °F 30.1 in Calm     82% 0 in 0 W/m2
03:39 49.8 °F 44.8 °F 30.1 in Calm     83% 0 in 0 W/m2
03:44 49.6 °F 44.8 °F 30.1 in Calm     83% 0 in 0 W/m2
03:49 49.5 °F 44.6 °F 30.1 in Calm     83% 0 in 0 W/m2
03:54 49.5 °F 44.8 °F 30.1 in Calm     84% 0 in 0 W/m2
03:59 49.3 °F 44.6 °F 30.1 in Calm     84% 0 in 0 W/m2
04:04 49.3 °F 44.6 °F 30.1 in Calm     84% 0 in 0 W/m2
04:09 49.1 °F 44.4 °F 30.1 in Calm     84% 0 in 0 W/m2
04:14 48.9 °F 44.2 °F 30.1 in Calm     84% 0 in 0 W/m2
04:19 48.7 °F 44.1 °F 30.1 in Calm     84% 0 in 0 W/m2
04:24 48.6 °F 44.2 °F 30.1 in Calm     85% 0 in 0 W/m2
04:29 48.6 °F 44.2 °F 30.1 in Calm     85% 0 in 0 W/m2
04:34 48.4 °F 44.4 °F 30.1 in Calm     86% 0 in 0 W/m2
04:39 48.4 °F 44.4 °F 30.1 in Calm     86% 0 in 0 W/m2
04:44 48.4 °F 44.8 °F 30.1 in Calm     87% 0 in 0 W/m2
04:49 48.4 °F 44.4 °F 30.1 in Calm     86% 0 in 0 W/m2
04:54 48.4 °F 44.4 °F 30.1 in Calm     86% 0 in 0 W/m2
04:59 48.6 °F 44.8 °F 30.1 in Calm     87% 0 in 0 W/m2
05:04 48.6 °F 44.6 °F 30.1 in Calm     86% 0 in 0 W/m2
05:09 48.7 °F 44.8 °F 30.1 in Calm     86% 0 in 0 W/m2
05:14 48.9 °F 45 °F 30.1 in Calm     86% 0 in 0 W/m2
05:19 49.3 °F 45 °F 30.1 in Calm     85% 0 in 0 W/m2
05:24 49.3 °F 45 °F 30.1 in Calm     85% 0 in 0 W/m2
05:29 49.5 °F 45.1 °F 30 in Calm     85% 0 in 0 W/m2
05:34 49.5 °F 45.1 °F 30 in Calm     85% 0 in 0 W/m2
05:39 49.5 °F 45.1 °F 30 in Calm     85% 0 in 0 W/m2
05:44 49.5 °F 45.1 °F 30 in Calm     85% 0 in 0 W/m2
05:49 49.5 °F 45.1 °F 30 in Calm     85% 0 in 0 W/m2
05:54 49.5 °F 45.1 °F 30 in Calm     85% 0 in 0 W/m2
05:59 49.6 °F 45.3 °F 30 in Calm   1 mph 85% 0 in 0 W/m2
06:04 49.6 °F 45.3 °F 30 in Calm     85% 0 in 0 W/m2
06:09 49.6 °F 45.3 °F 30 in Calm     85% 0 in 0 W/m2
06:14 49.8 °F 45.5 °F 30 in Calm     85% 0 in 0 W/m2
06:19 49.8 °F 45.5 °F 30 in Calm     85% 0 in 0 W/m2
06:24 50 °F 45.7 °F 30 in Calm     85% 0 in 0 W/m2
06:29 50 °F 45.7 °F 30 in Calm     85% 0 in 0 W/m2
06:34 50.2 °F 45.9 °F 30 in Calm     85% 0 in 0 W/m2
06:39 50.2 °F 45.9 °F 30 in Calm     85% 0 in 0 W/m2
06:44 50.4 °F 46 °F 30 in Calm     85% 0 in 0 W/m2
06:49 50.4 °F 46 °F 30 in Calm     85% 0 in 0 W/m2
06:55 50.4 °F 46 °F 30 in Calm     85% 0 in 0 W/m2
07:00 50.5 °F 46.2 °F 30 in NW 2.9 mph 3 mph 85% 0 in 0 W/m2
07:05 50.7 °F 46 °F 30 in WSW 0.9 mph 3 mph 84% 0 in 0 W/m2
07:10 51.1 °F 46 °F 30 in WSW 0.9 mph 1 mph 83% 0 in 0 W/m2
07:15 51.1 °F 46.4 °F 30 in WSW 0.9 mph 2 mph 84% 0 in 0 W/m2
07:20 51.3 °F 46.6 °F 30 in Calm   1 mph 84% 0 in 0 W/m2
07:25 51.3 °F 46.6 °F 30 in Calm     84% 0 in 5 W/m2
07:30 51.4 °F 46.8 °F 30 in Calm     84% 0 in 5 W/m2
07:35 51.4 °F 46.8 °F 30 in Calm     84% 0 in 5 W/m2
07:40 51.4 °F 46.8 °F 30 in Calm     84% 0 in 7 W/m2
07:45 51.8 °F 47.1 °F 30 in Calm     84% 0 in 12 W/m2
07:50 52 °F 46.9 °F 30 in Calm   1 mph 83% 0 in 18 W/m2
07:55 52.2 °F 46.8 °F 30 in WSW 0.9 mph 2 mph 82% 0 in 21 W/m2
08:00 52.2 °F 46.8 °F 30 in WSW 0.9 mph 2 mph 82% 0 in 21 W/m2
08:05 52.2 °F 46.8 °F 30 in WSW 0.9 mph 1 mph 82% 0 in 18 W/m2
08:10 52.3 °F 47.3 °F 30 in Calm   2 mph 83% 0 in 16 W/m2
08:15 52.3 °F 47.3 °F 30 in Calm     83% 0 in 18 W/m2
08:20 52.5 °F 47.5 °F 30 in Calm   2 mph 83% 0 in 19 W/m2
08:25 52.9 °F 47.8 °F 30 in Calm   1 mph 83% 0 in 21 W/m2
08:30 52.9 °F 47.8 °F 30 in Calm     83% 0 in 28 W/m2
08:35 53.1 °F 47.7 °F 30 in West 2 mph 2 mph 82% 0 in 35 W/m2
08:40 53.2 °F 47.8 °F 30 in West 0.9 mph 2 mph 82% 0 in 37 W/m2
08:45 53.2 °F 47.5 °F 30 in WNW 0.9 mph 4 mph 81% 0 in 39 W/m2
08:50 53.4 °F 47.7 °F 30 in West 0.9 mph 1 mph 81% 0 in 35 W/m2
08:55 53.6 °F 47.7 °F 30 in Calm   1 mph 80% 0 in 42 W/m2
09:00 53.8 °F 48 °F 30 in Calm   1 mph 81% 0 in 49 W/m2
09:05 54 °F 48.6 °F 30 in Calm   1 mph 82% 0 in 56 W/m2
09:10 54 °F 48.6 °F 30 in Calm     82% 0 in 67 W/m2
09:15 54.1 °F 48.7 °F 30 in ESE 2 mph 3 mph 82% 0 in 58 W/m2
09:20 54.3 °F 49.3 °F 30 in ESE 4 mph 4 mph 83% 0 in 54 W/m2
09:25 54.3 °F 48.9 °F 30 in Calm     82% 0 in 54 W/m2
09:31 54.3 °F 48.9 °F 30 in Calm   1 mph 82% 0 in 51 W/m2
09:36 54.7 °F 49.3 °F 30 in NE 2 mph 3 mph 82% 0 in 46 W/m2
09:41 54.7 °F 49.3 °F 30 in ENE 0.9 mph 1 mph 82% 0 in 49 W/m2
09:46 54.7 °F 49.3 °F 30 in Calm     82% 0 in 62 W/m2
09:51 54.7 °F 49.3 °F 30 in Calm     82% 0 in 72 W/m2
09:56 54.9 °F 49.8 °F 30 in Calm   2 mph 83% 0 in 77 W/m2
10:01 54.9 °F 49.8 °F 30 in Calm     83% 0 in 77 W/m2
10:06 55 °F 50 °F 30 in ENE 0.9 mph 2 mph 83% 0 in 74 W/m2
10:11 55.2 °F 50.2 °F 30 in East 2.9 mph 3 mph 83% 0 in 79 W/m2
10:16 55.6 °F 50.2 °F 30 in East 2 mph 2 mph 82% 0 in 88 W/m2
10:21 55.6 °F 49.5 °F 30 in Calm   3 mph 80% 0 in 90 W/m2
10:26 55.8 °F 48.9 °F 30 in Calm     78% 0 in 90 W/m2
10:31 55.9 °F 49.1 °F 30 in Calm   1 mph 78% 0 in 105 W/m2
10:36 56.1 °F 48.9 °F 30 in Calm     77% 0 in 141 W/m2
10:41 56.5 °F 49.3 °F 30 in Calm   2 mph 77% 0 in 183 W/m2
10:46 56.7 °F 49.5 °F 30 in ENE 0.9 mph 3 mph 77% 0 in 229 W/m2
10:51 57 °F 49.5 °F 30 in ENE 2 mph 2 mph 76% 0 in 248 W/m2
10:56 57.4 °F 48.4 °F 30 in Calm   3 mph 72% 0 in 253 W/m2
11:01 57.6 °F 48.2 °F 30 in East 0.9 mph 1 mph 71% 0 in 250 W/m2
11:06 57.9 °F 49.3 °F 30 in East 0.9 mph 1 mph 73% 0 in 271 W/m2
11:11 58.5 °F 49.5 °F 30 in Calm   1 mph 72% 0 in 297 W/m2
11:16 58.6 °F 50 °F 30 in Calm   2 mph 73% 0 in 308 W/m2
11:21 59.2 °F 50.9 °F 30 in Calm   1 mph 74% 0 in 376 W/m2
11:26 59.5 °F 50.5 °F 30 in Calm   1 mph 72% 0 in 480 W/m2
11:31 60.3 °F 50.4 °F 30 in East 2 mph 2 mph 70% 0 in 673 W/m2
11:36 61 °F 48.7 °F 30 in ENE 2 mph 2 mph 64% 0 in 673 W/m2
11:41 62.1 °F 49.3 °F 30 in ENE 2 mph 2 mph 63% 0 in 784 W/m2
11:46 63 °F 50.2 °F 30 in ENE 2 mph 3 mph 63% 0 in 403 W/m2
11:51 63.7 °F 49.1 °F 30 in NNW 0.9 mph 2 mph 59% 0 in 527 W/m2
11:56 64 °F 48.9 °F 30 in ENE 0.9 mph 3 mph 58% 0 in 547 W/m2
12:01 64.4 °F 50.2 °F 30 in East 0.9 mph 2 mph 60% 0 in 336 W/m2
12:06 64.8 °F 49.1 °F 30 in ENE 2 mph 3 mph 57% 0 in 287 W/m2
12:11 65.1 °F 49.5 °F 30 in ENE 2 mph 3 mph 57% 0 in 761 W/m2
12:16 65.5 °F 49.3 °F 30 in Calm   2 mph 56% 0 in 733 W/m2
12:22 65.7 °F 49.5 °F 30 in ESE 2.9 mph 4 mph 56% 0 in 169 W/m2
12:27 65.7 °F 49.1 °F 30 in East 0.9 mph 3 mph 55% 0 in 163 W/m2
12:32 65.7 °F 48.6 °F 30 in East 2 mph 4 mph 54% 0 in 151 W/m2
12:37 65.5 °F 49.3 °F 30 in East 2.9 mph 3 mph 56% 0 in 728 W/m2
12:42 66 °F 49.8 °F 30 in East 2.9 mph 4 mph 56% 0 in 694 W/m2
12:47 66.7 °F 50.5 °F 30 in ENE 4 mph 4 mph 56% 0 in 680 W/m2
12:52 67.3 °F 50.5 °F 30 in ESE 2 mph 4 mph 55% 0 in 675 W/m2
12:57 68 °F 49.6 °F 30 in ESE 2.9 mph 5 mph 52% 0 in 680 W/m2
13:02 68.5 °F 49.1 °F 30 in NE 2.9 mph 4 mph 50% 0 in 680 W/m2
13:07 68.7 °F 49.3 °F 30 in ENE 4 mph 7 mph 50% 0 in 679 W/m2
13:12 68.5 °F 48.6 °F 30 in ESE 0.9 mph 2 mph 49% 0 in 686 W/m2
13:17 69.1 °F 49.1 °F 30 in ENE 2 mph 6 mph 49% 0 in 680 W/m2
13:22 69.4 °F 50 °F 30 in ENE 0.9 mph 8 mph 50% 0 in 701 W/m2
13:27 69.4 °F 48.4 °F 30 in ENE 0.9 mph 3 mph 47% 0 in 701 W/m2
13:32 69.6 °F 48.6 °F 30 in NE 4 mph 8 mph 47% 0 in 722 W/m2
13:37 70.2 °F 48.4 °F 30 in ENE 2 mph 3 mph 46% 0 in 726 W/m2
13:42 70.3 °F 46.2 °F 30 in ENE 2 mph 3 mph 42% 0 in 729 W/m2
13:47 70.9 °F 46 °F 30 in East 2 mph 6 mph 41% 0 in 578 W/m2
13:52 71.2 °F 46.9 °F 30 in ESE 2 mph 3 mph 42% 0 in 717 W/m2
13:57 71.2 °F 45 °F 30 in Calm   3 mph 39% 0 in 102 W/m2
14:02 71.2 °F 46.9 °F 30 in East 0.9 mph 3 mph 42% 0 in 109 W/m2
14:07 71.1 °F 48 °F 30 in Calm   1 mph 44% 0 in 127 W/m2
14:12 71.1 °F 44.8 °F 30 in East 2 mph 4 mph 39% 0 in 142 W/m2
14:17 71.4 °F 46.6 °F 30 in East 2 mph 3 mph 41% 0 in 693 W/m2
14:22 72 °F 46.9 °F 29.9 in ENE 2 mph 3 mph 41% 0 in 700 W/m2
14:27 72.5 °F 46.2 °F 29.9 in Calm   2 mph 39% 0 in 710 W/m2
14:32 73 °F 45.1 °F 29.9 in East 0.9 mph 3 mph 37% 0 in 724 W/m2
14:37 73.4 °F 45.5 °F 29.9 in ENE 2 mph 4 mph 37% 0 in 740 W/m2
14:42 73.4 °F 44.8 °F 29.9 in East 2 mph 5 mph 36% 0 in 751 W/m2
14:47 73.6 °F 44.2 °F 29.9 in ENE 4 mph 6 mph 35% 0 in 759 W/m2
14:52 73.6 °F 43.5 °F 29.9 in West 0.9 mph 2 mph 34% 0 in 738 W/m2
14:57 74.1 °F 43.2 °F 29.9 in North 2 mph 5 mph 33% 0 in 751 W/m2
15:02 74.7 °F 43.7 °F 29.9 in North 2 mph 2 mph 33% 0 in 777 W/m2
15:07 74.5 °F 41.9 °F 29.9 in West 4 mph 8 mph 31% 0 in 199 W/m2
15:12 73.9 °F 43 °F 29.9 in ESE 0.9 mph 3 mph 33% 0 in 715 W/m2
15:17 73.9 °F 42.3 °F 29.9 in West 0.9 mph 8 mph 32% 0 in 756 W/m2
15:22 73.9 °F 39.7 °F 29.9 in South 0.9 mph 2 mph 29% 0 in 227 W/m2
15:27 73.8 °F 39.6 °F 29.9 in ESE 0.9 mph 4 mph 29% 0 in 213 W/m2
15:32 73.8 °F 39.6 °F 29.9 in West 2.9 mph 9 mph 29% 0 in 721 W/m2
15:37 73.9 °F 39.7 °F 29.9 in West 6 mph 11 mph 29% 0 in 726 W/m2
15:42 73.9 °F 38.8 °F 29.9 in WNW 2.9 mph 4 mph 28% 0 in 223 W/m2
15:47 73.2 °F 39.9 °F 29.9 in West 2.9 mph 7 mph 30% 0 in 225 W/m2
15:52 73 °F 40.6 °F 29.9 in NNW 2 mph 7 mph 31% 0 in 696 W/m2
15:57 73.8 °F 41.2 °F 29.9 in WNW 4 mph 8 mph 31% 0 in 682 W/m2
16:02 73.9 °F 40.5 °F 29.9 in SW 2 mph 2 mph 30% 0 in 230 W/m2
16:07 73.8 °F 40.5 °F 29.9 in West 2 mph 11 mph 30% 0 in 297 W/m2
16:12 73.9 °F 39.7 °F 29.9 in West 4 mph 8 mph 29% 0 in 587 W/m2
16:17 73.9 °F 42.3 °F 29.9 in West 4 mph 7 mph 32% 0 in 557 W/m2
16:22 74.5 °F 41.9 °F 29.9 in NNW 4 mph 10 mph 31% 0 in 557 W/m2
16:27 74.5 °F 41 °F 29.9 in NNW 2 mph 7 mph 30% 0 in 522 W/m2
16:32 74.5 °F 41 °F 29.9 in West 6.9 mph 10 mph 30% 0 in 515 W/m2
16:37 74.5 °F 40.1 °F 29.9 in West 4 mph 6 mph 29% 0 in 95 W/m2
16:42 73.9 °F 39.7 °F 29.9 in NW 0.9 mph 3 mph 29% 0 in 105 W/m2
16:47 73.9 °F 40.5 °F 29.9 in Calm   4 mph 30% 0 in 387 W/m2
16:52 74.3 °F 39.9 °F 29.9 in East 0.9 mph 3 mph 29% 0 in 174 W/m2
16:57 74.7 °F 41.2 °F 29.9 in WNW 4 mph 5 mph 30% 0 in 461 W/m2
17:02 75 °F 39.7 °F 29.9 in NW 0.9 mph 5 mph 28% 0 in 464 W/m2
17:08 75 °F 42.3 °F 29.9 in NNW 2 mph 4 mph 31% 0 in 471 W/m2
17:13 75.2 °F 40.8 °F 29.9 in SW 2 mph 4 mph 29% 0 in 448 W/m2
17:18 75.4 °F 41.7 °F 29.9 in West 4 mph 4 mph 30% 0 in 429 W/m2
17:23 75.7 °F 41.2 °F 29.9 in WNW 2.9 mph 7 mph 29% 0 in 413 W/m2
17:28 75.6 °F 40.1 °F 29.9 in WNW 4.9 mph 5 mph 28% 0 in 415 W/m2
17:33 75.6 °F 41.9 °F 29.9 in West 2.9 mph 7 mph 30% 0 in 413 W/m2
17:38 75.2 °F 40.8 °F 29.9 in WSW 4 mph 7 mph 29% 0 in 396 W/m2
17:43 74.8 °F 39.6 °F 29.9 in WSW 6 mph 7 mph 28% 0 in 364 W/m2
17:48 74.5 °F 40.1 °F 29.9 in Calm   4 mph 29% 0 in 334 W/m2
17:53 74.1 °F 39.9 °F 29.9 in WNW 2.9 mph 6 mph 29% 0 in 234 W/m2
17:58 73.9 °F 41.4 °F 29.9 in West 0.9 mph 2 mph 31% 0 in 330 W/m2
18:03 74.1 °F 40.6 °F 29.9 in North 2 mph 6 mph 30% 0 in 327 W/m2
18:08 74.5 °F 41.9 °F 29.9 in West 2 mph 5 mph 31% 0 in 332 W/m2
18:13 74.5 °F 40.1 °F 29.9 in WNW 2 mph 7 mph 29% 0 in 332 W/m2
18:18 74.3 °F 39.9 °F 29.9 in WNW 2.9 mph 7 mph 29% 0 in 323 W/m2
18:23 74.1 °F 40.6 °F 29.9 in West 4 mph 4 mph 30% 0 in 313 W/m2
18:28 74.1 °F 40.6 °F 29.9 in WSW 2.9 mph 10 mph 30% 0 in 278 W/m2
18:33 74.1 °F 39.9 °F 29.9 in NNW 0.9 mph 2 mph 29% 0 in 253 W/m2
18:38 74.1 °F 39.9 °F 29.9 in WNW 2 mph 10 mph 29% 0 in 214 W/m2
18:43 74.1 °F 40.6 °F 29.9 in West 2 mph 2 mph 30% 0 in 197 W/m2
18:48 73.9 °F 40.5 °F 29.9 in West 0.9 mph 7 mph 30% 0 in 199 W/m2
18:53 73.9 °F 39.7 °F 29.9 in WNW 2 mph 3 mph 29% 0 in 183 W/m2
18:58 73.9 °F 41.4 °F 29.9 in West 2 mph 3 mph 31% 0 in 158 W/m2
19:03 73.9 °F 39.7 °F 29.9 in West 2.9 mph 3 mph 29% 0 in 135 W/m2
19:08 73.8 °F 40.5 °F 29.9 in NW 2 mph 4 mph 30% 0 in 118 W/m2
19:13 73.4 °F 41.7 °F 29.9 in WNW 0.9 mph 3 mph 32% 0 in 102 W/m2
19:18 73 °F 40.6 °F 29.9 in West 0.9 mph 4 mph 31% 0 in 90 W/m2
19:23 72.9 °F 43.5 °F 29.9 in WSW 2.9 mph 4 mph 35% 0 in 81 W/m2
19:28 72.5 °F 44.8 °F 29.9 in Calm   1 mph 37% 0 in 74 W/m2
19:33 72 °F 45.7 °F 29.9 in Calm   3 mph 39% 0 in 67 W/m2
19:38 71.4 °F 45.9 °F 29.9 in WSW 0.9 mph 1 mph 40% 0 in 58 W/m2
19:43 71.1 °F 46.2 °F 29.9 in WSW 0.9 mph 2 mph 41% 0 in 51 W/m2
19:48 70.3 °F 46.8 °F 29.9 in WSW 0.9 mph 2 mph 43% 0 in 46 W/m2
19:53 70 °F 46.4 °F 29.9 in WSW 0.9 mph 2 mph 43% 0 in 40 W/m2
19:58 69.4 °F 46.6 °F 29.9 in WSW 0.9 mph 2 mph 44% 0 in 33 W/m2
20:03 68.5 °F 44.6 °F 29.9 in WSW 0.9 mph 2 mph 42% 0 in 25 W/m2
20:08 67.6 °F 43.7 °F 29.9 in WSW 0.9 mph 1 mph 42% 0 in 18 W/m2
20:13 67.1 °F 43.9 °F 29.9 in ESE 10.1 mph 10 mph 43% 0 in 11 W/m2
20:18 66.9 °F 44.2 °F 29.9 in East 0.9 mph 3 mph 44% 0 in 7 W/m2
20:23 66.7 °F 44.1 °F 29.9 in NW 10 mph 10 mph 44% 0 in 0 W/m2
20:28 66.7 °F 45.3 °F 29.9 in Calm   2 mph 46% 0 in 0 W/m2
20:33 66.2 °F 45.3 °F 29.9 in WSW 0.9 mph 2 mph 47% 0 in 0 W/m2
20:38 65.5 °F 44.2 °F 29.9 in WNW 0.9 mph 4 mph 46% 0 in 0 W/m2
20:43 65.1 °F 45 °F 29.9 in Calm   1 mph 48% 0 in 0 W/m2
20:48 64.6 °F 46 °F 29.9 in WNW 0.9 mph 3 mph 51% 0 in 0 W/m2
20:53 63.9 °F 45.9 °F 29.9 in Calm   2 mph 52% 0 in 0 W/m2
20:58 63 °F 45.1 °F 29.9 in ESE 0.9 mph 2 mph 52% 0 in 0 W/m2
21:03 62.2 °F 45.3 °F 29.9 in Calm   2 mph 54% 0 in 0 W/m2
21:08 61.9 °F 45.5 °F 29.9 in Calm   1 mph 55% 0 in 0 W/m2
21:13 61.2 °F 45.3 °F 29.9 in Calm   2 mph 56% 0 in 0 W/m2
21:18 60.6 °F 45.7 °F 29.9 in Calm   1 mph 58% 0 in 0 W/m2
21:23 60.3 °F 45.9 °F 29.9 in Calm   1 mph 59% 0 in 0 W/m2
21:28 59.7 °F 45.9 °F 29.9 in SE 0.9 mph 2 mph 60% 0 in 0 W/m2
21:33 59.2 °F 45.3 °F 29.9 in SE 0.9 mph 2 mph 60% 0 in 0 W/m2
21:38 58.6 °F 45.3 °F 29.9 in Calm   1 mph 61% 0 in 0 W/m2
21:43 58.3 °F 45.3 °F 29.9 in Calm   1 mph 62% 0 in 0 W/m2
21:48 57.7 °F 45.3 °F 29.9 in Calm     63% 0 in 0 W/m2
21:53 57.6 °F 45.1 °F 29.9 in Calm     63% 0 in 0 W/m2
21:58 57.4 °F 45.3 °F 29.9 in SE 0.9 mph 2 mph 64% 0 in 0 W/m2
22:03 57 °F 45 °F 29.9 in Calm     64% 0 in 0 W/m2
22:08 56.8 °F 44.8 °F 29.9 in WSW 0.9 mph 2 mph 64% 0 in 0 W/m2
22:13 56.7 °F 45 °F 29.9 in Calm     65% 0 in 0 W/m2
22:18 56.5 °F 44.8 °F 29.9 in Calm   2 mph 65% 0 in 0 W/m2
22:23 56.1 °F 45 °F 29.9 in Calm     66% 0 in 0 W/m2
22:28 55.9 °F 44.4 °F 29.9 in WSW 0.9 mph 1 mph 65% 0 in 0 W/m2
22:33 55.9 °F 44.8 °F 29.9 in Calm   1 mph 66% 0 in 0 W/m2
22:38 55.8 °F 44.6 °F 29.9 in Calm     66% 0 in 0 W/m2
22:43 55.8 °F 44.6 °F 29.9 in WSW 1 mph 1 mph 66% 0 in 0 W/m2
22:48 55.4 °F 44.2 °F 29.9 in Calm     66% 0 in 0 W/m2
22:53 55 °F 44.2 °F 29.9 in Calm     67% 0 in 0 W/m2
22:58 54.9 °F 44.1 °F 29.9 in Calm     67% 0 in 0 W/m2
23:03 54.5 °F 44.2 °F 29.9 in Calm     68% 0 in 0 W/m2
23:08 54.1 °F 43.9 °F 29.9 in Calm     68% 0 in 0 W/m2
23:13 54 °F 44.1 °F 29.9 in Calm     69% 0 in 0 W/m2
23:18 53.8 °F 43.9 °F 29.9 in Calm     69% 0 in 0 W/m2
23:23 53.6 °F 44.1 °F 29.9 in WSW 0.9 mph 1 mph 70% 0 in 0 W/m2
23:28 53.6 °F 44.1 °F 29.9 in Calm     70% 0 in 0 W/m2
23:33 53.8 °F 44.6 °F 29.9 in South 0.9 mph 2 mph 71% 0 in 0 W/m2
23:38 53.8 °F 44.2 °F 29.9 in Calm     70% 0 in 0 W/m2
23:43 53.8 °F 44.2 °F 29.9 in Calm   1 mph 70% 0 in 0 W/m2
23:48 53.6 °F 44.4 °F 29.9 in Calm   1 mph 71% 0 in 0 W/m2
23:53 53.4 °F 44.2 °F 29.9 in Calm   1 mph 71% 0 in 0 W/m2
23:59 53.2 °F 44.1 °F 29.9 in Calm   1 mph 71% 0 in 0 W/m2
Juneau County Weather
Compliments of Weather Underground - 4 mb